Location: Caltech
(34.1382°N, 118.1253°W)
Time: 12:29:21
(UTC-07:00)

KITSAT 1 - Visible Passes

Search period start: 26 April 2017 00:00
Search period end: 06 May 2017 00:00
Orbit: 1310 x 1320 km, 66.1° (Epoch: 25 April)

Date Brightness Start Highest point End Pass type
(mag) Time Alt. Az. Time Alt. Az. Time Alt. Az.
26 Apr 12.3 00:05:42 10° N 00:10:19 16° NE 00:13:55 12° ENE visible
26 Apr 10.5 01:59:04 10° NNW 02:05:50 61° N 02:05:50 61° N visible
26 Apr 11.9 03:56:13 10° WNW 03:57:45 14° WNW 03:57:45 14° WNW visible
27 Apr 11.9 00:20:54 10° N 00:27:02 23° NE 00:28:52 21° ENE visible
27 Apr 10.7 02:15:08 10° NNW 02:20:47 50° NW 02:20:47 50° NW visible
28 Apr 11.4 00:36:25 10° N 00:43:34 33° NE 00:43:55 33° ENE visible
28 Apr 11.2 02:31:24 10° NW 02:35:51 34° NW 02:35:51 34° NW visible
28 Apr 12.5 23:00:57 10° NNE 23:02:16 10° NNE 23:03:35 10° NE visible
29 Apr 10.9 00:52:08 10° NNW 00:59:03 46° NE 00:59:03 46° NE visible
29 Apr 11.6 02:47:58 10° NW 02:51:00 22° WNW 02:51:00 22° WNW visible
29 Apr 12.2 23:14:44 10° N 23:19:12 15° NE 23:22:19 13° ENE visible
30 Apr 10.7 01:08:01 10° NNW 01:14:15 54° N 01:14:15 54° N visible
30 Apr 12.1 03:05:03 10° WNW 03:06:12 13° WNW 03:06:12 13° WNW visible
30 Apr 11.8 23:29:53 10° N 23:35:56 22° NE 23:37:35 21° ENE visible
01 May 10.8 01:24:04 10° NNW 01:29:31 48° NW 01:29:31 48° NW visible
01 May 11.3 23:45:24 10° N 23:52:29 32° NE 23:52:53 32° ENE visible
02 May 11.2 01:40:19 10° NW 01:44:50 35° NW 01:44:50 35° NW visible
02 May 12.5 22:10:35 10° NNE 22:11:08 10° NNE 22:11:40 10° NE visible
03 May 10.9 00:01:06 10° NNW 00:08:15 45° NE 00:08:15 45° NE visible
03 May 11.6 01:56:52 10° NW 02:00:12 24° WNW 02:00:12 24° WNW visible
03 May 12.1 22:23:47 10° N 22:28:05 15° NE 22:31:41 11° ENE visible
04 May 10.6 00:16:58 10° NNW 00:23:39 58° NNE 00:23:39 58° NNE visible
04 May 12.0 02:13:53 10° WNW 02:15:36 15° WNW 02:15:36 15° WNW visible
04 May 11.7 22:38:53 10° N 22:44:50 22° NE 22:47:07 19° ENE visible
05 May 10.6 00:33:00 10° NNW 00:39:05 56° NW 00:39:05 56° NW visible
05 May 11.3 22:54:22 10° N 23:01:24 31° NE 23:02:36 30° ENE visible
